Location: Quedlinburg
(51.7921°N, 11.1414°E)
Time: 04:54:21
(UTC+02:00)

STRAND 1 - Pass Details

Date: 20 March 2026
Orbit: 761 x 775 km, 98.4° (Epoch: 16 April)

Event Time Altitude Azimuth Distance (km) Brightness Sun altitude
Rises 20:01:56 0° 6° (N) 3,242 ? -15.0°
Reaches altitude 10° 20:04:50 10° 349° (N) 2,310 ? -15.4°
Maximum altitude 20:08:20 19° 305° (NW) 1,754 ? -15.9°
Drops below altitude 10° 20:11:49 10° 261° (W) 2,298 ? -16.4°
Sets 20:14:42 0° 244° (WSW) 3,219 ? -16.8°
